Погода в Береговом

Россия / Республика Крым     45°05′39″N   35°26′11″E
темп.,
°C
ветер,
м/с
пор.,
м/с
влажн.,
%
обл.,
%
осадки,
мм/ч
давл.,
гПа
погр.,
м
7 мая, пт
пт700:00+13сз58697 0.0 1014148
03:00+13сз456433 0.0 1015133
06:00+13сз45655 0.0 1016128
09:00+15зсз11665 0.0 101765
12:00+14ю566998 0.0 1018228
15:00+14ююв67775 0.0 1017285
18:00+15ю577794 0.0 1016241
21:00+14ю567816 0.0 1016161
8 мая, сб
сб800:00+14ю6880100 0.0 1015228
03:00+14ю7984100 0.0 1013264
06:00+14ю7985100 0.0 1013257
09:00+14ю6882100 0.0 1013236
12:00+14ю57824 0.0 1012178
15:00+15ююв578252 0.0 1011197
18:00+15ююв3483100 0.0 1010135
21:00+15с141784100 0.0 1012648
9 мая, вс
вс900:00+12ссз131589100 1.7 1013933
03:00+11с151787100 3.5 10151090
06:00+10ссз131481100 6.1 10171110
09:00+10ссз121472100 6.6 10191604
12:00+12ссз1114635 0.1 10211625
15:00+14ссз1112525 0.1 10231775
18:00+14ссз811525 0.0 10241663
21:00+13зсз46585 0.0 1026267
10 мая, пн
пн1000:00+12сз56635 0.1 1026196
03:00+10сз79691 0.1 1026312
06:00+10сз797331 0.1 1026350
09:00+13ссз810543 0.1 10261931
12:00+13ссз1010525 0.0 10261928
15:00+14ссз9114879 0.0 10241802
18:00+15ссз71050100 0.0 10231192
21:00+13сз6105780 0.0 1024356
11 мая, вт
вт1100:00+13ссз91265100 0.0 10201306
03:00+12сз111479100 0.2 10181034
06:00+13ссз101281100 0.6 1017975
09:00+13ссз91187100 1.0 1017913
12:00+13ссз7886100 0.9 1017701
15:00+14ссз567596 1.3 1016869
18:00+13с4476100 0.5 1016579
21:00+13ссз3475100 1.1 1016532